Stations météo

réclame
Mon MeteoGroup
Lorient Lan Bihoue, France (7205): Température de l'air & dewpoint: 22.02.2020 19:00:00 - 28.02.2020 19:00:00 (CET)Lorient Lan Bihoue, France (7205): Température de l'air 5cm: 22.02.2020 19:00:00 - 28.02.2020 19:00:00 (CET)Lorient Lan Bihoue, France (7205): Température de l'air -20cm: 22.02.2020 19:00:00 - 28.02.2020 19:00:00 (CET)Lorient Lan Bihoue, France (7205): Vitesse du vent & gusts: 22.02.2020 19:00:00 - 28.02.2020 19:00:00 (CET)Lorient Lan Bihoue, France (7205): Direction du vent: 22.02.2020 19:00:00 - 28.02.2020 19:00:00 (CET)Lorient Lan Bihoue, France (7205): reduced air pressure: 22.02.2020 19:00:00 - 28.02.2020 19:00:00 (CET)Lorient Lan Bihoue, France (7205): visibility: 22.02.2020 19:00:00 - 28.02.2020 19:00:00 (CET)Lorient Lan Bihoue, France (7205): Ensoleillement: 22.02.2020 19:00:00 - 28.02.2020 19:00:00 (CET)Lorient Lan Bihoue, France (7205): Quantités de précipitations: 22.02.2020 19:00:00 - 28.02.2020 19:00:00 (CET)
Date & Time tt [°C] td [°C] tt 5cm [°C] tt -20cm [°C] ff [km/h] ff [knt] fx [km/h] fx [knt] dd ppp [hPa] vv [km] sd [min] rr [mm]
28.02.2020 19:00:00 11,4 10,6 11,0 9,7 29 16 52 28 SSW 1007,2 8 0 0,0
28.02.2020 18:00:00 11,5 10,6 11,1 9,7 32 17 52 28 SSW 1008,0 7 0 0,0
28.02.2020 17:00:00 11,6 10,7 11,6 9,7 29 16 51 28 SW 1009,0 8 0 0,0
28.02.2020 16:00:00 11,7 11,1 11,5 9,5 29 16 43 23 SW 1009,6 7 0 0,2
28.02.2020 15:00:00 11,5 11,0 11,4 9,5 27 15 48 26 SW 1010,4 6 0 2,4
28.02.2020 14:00:00 11,5 10,9 11,5 9,4 26 14 44 24 SW 1011,3 3,0 0 1,0
28.02.2020 13:00:00 11,8 11,0 11,5 9,4 28 15 44 24 SW 1012,1 7 0 0,0
28.02.2020 12:00:00 11,6 11,0 11,4 9,3 29 15 44 24 SW 1012,8 6 0 0,0
28.02.2020 11:00:00 11,5 11,0 11,3 9,3 27 14 46 25 SW 1012,8 4,0 0 0,0
28.02.2020 10:00:00 11,5 10,9 11,2 9,3 27 14 46 25 SW 1013,1 4,4 0 0,0
28.02.2020 09:00:00 11,4 10,9 10,6 9,3 26 14 42 23 SW 1013,2 3,8 0 0,0
28.02.2020 08:00:00 10,8 10,3 8,9 9,4 17 9 41 22 SSW 1013,1 6 0 0,2
28.02.2020 07:00:00 9,1 8,5 8,2 9,3 24 13 57 31 S 1014,4 9 0 0,2
28.02.2020 06:00:00 8,4 7,6 7,6 9,3 26 14 43 23 SSE 1015,0 2,3 0 0,4
28.02.2020 05:00:00 8,4 6,7 6,7 9,4 22 12 33 18 S 1015,8 11 0 0,2
28.02.2020 04:00:00 7,7 5,7 5,2 9,4 14 8 20 11 S 1016,6 10 0 0,2
28.02.2020 03:00:00 6,2 4,2 3,7 9,5 10 6 17 9 SE 1017,4 19 0 0,0
28.02.2020 02:00:00 4,8 3,3 2,4 9,6 6 3 13 7 ESE 1018,6 19 0 0,0
28.02.2020 01:00:00 3,6 2,6 0,1 9,7 6 4 9 5 E 1018,7 13 0 0,0
28.02.2020 00:00:00 4,1 2,1 0,6 9,7 4 2 9 5 SE 1018,7 20 0 0,0
27.02.2020 23:00:00 4,7 2,9 1,9 9,7 6 3 8 4 SE 1018,9 26 0 0,0
27.02.2020 22:00:00 4,6 1,8 1,3 9,8 0 0 5 3 N 1018,9 37 0 0,0
27.02.2020 21:00:00 5,9 2,0 1,3 9,8 3 2 9 5 W 1018,4 36 0 0,0
27.02.2020 20:00:00 6,9 1,8 2,0 9,8 5 3 15 8 NW 1017,7 24 0 0,0
27.02.2020 19:00:00 7,3 2,4 4,2 9,8 7 4 20 11 NNW 1016,4 51 7 0,0
27.02.2020 18:00:00 9,5 3,2 9,6 9,8 9 5 26 14 N 1015,2 53 54 0,0
27.02.2020 17:00:00 9,0 2,5 8,4 9,8 15 8 37 20 NW 1014,3 54 12 0,0
27.02.2020 16:00:00 10,2 3,0 10,6 9,7 22 12 54 29 NW 1012,9 49 34 0,0
27.02.2020 15:00:00 10,1 4,5 10,7 9,6 18 10 49 27 NNW 1011,5 42 10 0,0
27.02.2020 14:00:00 10,2 4,8 10,9 9,6 27 14 53 29 NW 1010,3 52 10 0,0
27.02.2020 13:00:00 9,5 5,1 10,4 9,6 23 12 60 33 NNW 1008,5 44 22 0,0
27.02.2020 12:00:00 10,0 6,3 10,1 9,6 32 17 58 31 NW 1006,4 34 13 0,0
27.02.2020 11:00:00 9,7 6,4 10,3 9,5 29 16 68 37 WNW 1004,3 40 17 0,0
27.02.2020 10:00:00 10,0 7,4 9,9 9,5 29 16 76 41 WNW 1002,1 43 14 0,0
27.02.2020 09:00:00 11,3 10,0 10,9 9,4 29 16 66 36 W 999,7 12 0 0,6
27.02.2020 08:00:00 11,4 10,8 11,0 9,4 43 23 74 40 W 998,7 3,4 0 0,4
27.02.2020 07:00:00 11,4 10,9 11,1 9,3 49 26 80 43 W 998,4 3,2 0 0,0
27.02.2020 06:00:00 11,3 11,0 11,0 9,3 41 22 67 36 W 998,7 3,6 0 0,2
27.02.2020 05:00:00 11,2 10,9 10,6 9,3 42 23 73 40 WSW 999,2 1,6 0 2,2
27.02.2020 04:00:00 10,7 10,4 10,0 9,3 40 22 61 33 SW 1000,4 2,8 0 1,8
27.02.2020 03:00:00 10,2 9,7 8,6 9,3 32 18 55 30 SSW 1002,9 3,1 0 1,7
27.02.2020 02:00:00 8,9 8,3 7,9 9,3 31 17 50 27 SSW 1005,6 5 0 1,4
27.02.2020 01:00:00 8,3 7,5 7,4 9,4 22 12 37 20 S 1007,8 6 0 2,2
27.02.2020 00:00:00 7,9 6,7 6,7 9,4 18 10 30 16 SSW 1010,6 8 0 0,8
26.02.2020 23:00:00 7,4 5,7 6,6 9,4 13 7 39 21 SSW 1012,3 12 0 0,4
26.02.2020 22:00:00 7,7 5,3 6,2 9,4 12 7 18 10 SW 1013,3 44 0 0,0
26.02.2020 21:00:00 7,3 4,6 6,3 9,4 13 7 28 15 WSW 1014,4 17 0 0,0
26.02.2020 20:00:00 7,2 4,0 6,3 9,4 22 12 32 18 WSW 1015,4 16 0 0,0
26.02.2020 19:00:00 7,6 3,3 6,6 9,4 17 9 29 16 WSW 1015,5 37 0 0,0
26.02.2020 18:00:00 8,3 2,3 7,9 9,4 17 9 31 17 W 1015,7 33 51 0,0
26.02.2020 17:00:00 8,6 1,5 8,7 9,3 18 10 37 20 W 1015,9 29 2 0,0
26.02.2020 16:00:00 9,2 1,8 10,2 9,4 22 12 39 21 W 1015,9 20 0 0,0
26.02.2020 15:00:00 9,2 1,4 10,6 9,4 24 13 45 25 W 1016,2 19 0 0,0
26.02.2020 14:00:00 9,1 2,2 10,3 9,3 24 13 49 26 W 1016,4 20 13 0,0
26.02.2020 13:00:00 8,6 0,8 9,9 9,3 21 11 46 25 WNW 1016,7 20 34 0,0
26.02.2020 12:00:00 8,7 1,1 10,4 9,4 26 14 51 28 WNW 1016,1 20 60 0,0
26.02.2020 11:00:00 7,8 2,0 9,2 9,5 21 11 48 26 WNW 1016,1 19 60 0,0
26.02.2020 10:00:00 6,5 2,9 4,7 9,5 - - 29 16 - 1015,3 18 60 0,0
26.02.2020 09:00:00 4,4 1,8 0,2 9,6 17 9 26 14 W 1014,4 20 36 0,0
26.02.2020 08:00:00 2,9 0,6 0,6 9,7 10 5 32 18 NW 1013,9 47 0 0,0
26.02.2020 07:00:00 3,8 1,5 1,8 9,7 21 11 50 27 W 1013,1 14 0 0,0
26.02.2020 06:00:00 3,7 1,2 1,9 9,8 26 14 49 26 WNW 1012,7 20 0 0,8
26.02.2020 05:00:00 3,7 1,4 2,0 9,9 21 12 45 25 W 1012,2 35 0 0,0
26.02.2020 04:00:00 3,5 1,4 2,1 9,9 34 19 68 37 WNW 1012,2 7 0 0,4
26.02.2020 03:00:00 4,8 1,5 3,1 10,0 29 16 58 31 W 1011,8 20 0 0,0
26.02.2020 02:00:00 5,1 1,2 3,1 10,1 29 16 57 31 WNW 1011,1 20 0 0,0
26.02.2020 01:00:00 5,1 1,8 3,1 10,2 21 11 61 33 WNW 1010,7 34 0 0,0
26.02.2020 00:00:00 5,6 2,4 4,0 10,2 35 19 64 35 WNW 1010,7 42 0 0,0
25.02.2020 23:00:00 5,5 2,7 3,7 10,4 22 12 53 29 W 1010,4 39 0 0,2
25.02.2020 22:00:00 6,1 2,4 4,4 10,4 38 20 65 35 W 1010,5 7 0 0,0
25.02.2020 21:00:00 6,0 1,3 3,9 10,4 21 11 42 23 W 1010,6 20 0 0,0
25.02.2020 20:00:00 6,3 0,8 4,6 10,4 27 15 64 34 WNW 1010,8 37 0 0,2
25.02.2020 19:00:00 7,6 2,5 6,2 10,5 34 18 56 30 W 1010,0 17 7 0,0
25.02.2020 18:00:00 8,0 3,1 7,4 10,5 30 16 53 29 WNW 1009,8 32 23 0,0
25.02.2020 17:00:00 8,1 4,7 7,3 10,4 35 19 62 34 W 1009,8 17 33 0,2
25.02.2020 16:00:00 9,4 5,4 6,8 10,5 30 16 63 34 W 1009,4 20 22 0,4
25.02.2020 15:00:00 10,8 5,7 10,3 10,5 44 24 70 38 W 1010,0 20 40 0,0
25.02.2020 14:00:00 9,6 5,4 8,1 10,4 39 21 58 31 W 1010,7 19 9 0,0
25.02.2020 13:00:00 8,6 5,7 7,8 10,4 26 14 57 31 W 1011,6 31 37 0,2
25.02.2020 12:00:00 9,1 4,9 7,9 10,5 23 12 58 32 W 1011,8 48 27 0,2
25.02.2020 11:00:00 9,8 6,7 8,0 10,5 34 19 61 33 W 1011,8 17 33 0,0
25.02.2020 10:00:00 8,4 6,2 7,3 10,5 21 11 44 24 WNW 1012,5 6 23 0,2
25.02.2020 09:00:00 7,9 6,0 6,7 10,6 16 8 37 20 W 1012,4 33 5 0,2
25.02.2020 08:00:00 8,2 6,2 7,4 10,6 23 12 36 19 W 1012,7 15 0 0,0
25.02.2020 07:00:00 7,9 6,0 7,4 10,6 14 7 29 15 W 1013,0 36 0 0,0
25.02.2020 06:00:00 8,2 6,2 7,6 10,6 19 10 32 18 W 1013,2 47 0 0,0
25.02.2020 05:00:00 8,2 6,7 7,8 10,6 15 8 27 14 WNW 1013,1 44 0 0,0
25.02.2020 04:00:00 8,2 7,4 7,9 10,6 12 6 22 12 W 1013,6 20 0 0,0
25.02.2020 03:00:00 8,7 8,1 8,3 10,6 10 5 29 16 W 1013,9 36 0 0,0
25.02.2020 02:00:00 9,1 8,6 9,0 10,6 16 9 38 20 WNW 1013,9 19 0 0,4
25.02.2020 01:00:00 10,5 10,2 10,3 10,6 20 11 34 19 W 1013,8 3,9 0 0,2
25.02.2020 00:00:00 10,8 10,5 10,7 10,6 21 11 40 21 W 1014,2 9 0 0,8
24.02.2020 23:00:00 11,0 10,7 10,9 10,6 26 14 42 23 W 1014,8 6 0 1,4
24.02.2020 22:00:00 10,9 10,6 10,8 10,6 27 14 49 27 W 1015,3 4,9 0 2,0
24.02.2020 21:00:00 10,8 10,5 10,7 10,6 29 16 49 26 WSW 1015,6 4,5 0 0,6
24.02.2020 20:00:00 10,7 10,4 10,6 10,6 30 16 49 26 WSW 1016,1 2,1 0 0,2
24.02.2020 19:00:00 10,6 10,1 10,4 10,6 33 18 52 28 WSW 1016,5 2,1 0 0,2
24.02.2020 18:00:00 10,4 9,9 10,2 10,6 36 20 56 30 WSW 1017,0 1,9 0 0,0
24.02.2020 17:00:00 10,5 9,4 10,3 10,6 35 19 58 31 WSW 1017,6 10 0 0,2
24.02.2020 16:00:00 10,7 9,5 10,6 10,5 35 19 58 31 WSW 1018,3 13 0 0,0
24.02.2020 15:00:00 10,9 9,3 10,4 10,6 38 21 60 33 WSW 1019,1 19 0 0,0
24.02.2020 14:00:00 10,9 9,5 10,9 10,6 34 19 61 33 WSW 1020,2 9 0 0,0
24.02.2020 13:00:00 10,9 9,7 10,6 10,5 34 18 58 31 WSW 1021,1 17 0 0,0
24.02.2020 12:00:00 10,7 9,8 10,8 10,6 36 19 58 32 WSW 1022,0 7 3 0,2
24.02.2020 11:00:00 10,6 10,0 10,4 10,5 39 21 54 29 WSW 1022,6 2,7 1 0,2
24.02.2020 10:00:00 10,5 10,2 10,4 10,5 30 16 50 27 SW 1022,7 3,8 1 0,4
24.02.2020 09:00:00 10,3 10,0 10,1 10,6 29 16 45 24 SW 1023,3 4,4 0 0,2
24.02.2020 08:00:00 10,2 9,9 10,0 10,6 29 16 44 24 WSW 1023,9 2,5 0 0,0
24.02.2020 07:00:00 10,4 10,2 10,2 10,5 30 16 45 25 SW 1024,5 2,2 0 0,0
24.02.2020 06:00:00 10,2 10,0 10,1 10,5 27 15 40 22 WSW 1025,0 4,2 0 0,2
24.02.2020 05:00:00 10,4 10,2 10,4 10,5 29 15 42 23 WSW 1025,8 5 0 0,0
24.02.2020 04:00:00 10,8 10,6 10,8 10,5 26 14 45 24 WSW 1026,5 1,3 0 0,2
24.02.2020 03:00:00 10,9 10,7 10,9 10,5 27 15 42 23 SW 1027,2 3,6 0 0,0
24.02.2020 02:00:00 10,9 10,7 10,7 10,5 23 12 39 21 WSW 1028,0 1,7 0 0,0
24.02.2020 01:00:00 10,8 10,6 10,8 10,4 26 14 41 22 WSW 1028,4 19 0 0,0
24.02.2020 00:00:00 11,2 11,0 11,2 10,5 22 12 37 20 WSW 1028,8 1,3 0 0,0
23.02.2020 23:00:00 11,2 11,0 11,2 10,4 20 11 32 17 WSW 1028,9 8 0 0,0
23.02.2020 22:00:00 11,2 11,0 11,3 10,4 23 13 36 19 WSW 1029,2 7 0 0,0
23.02.2020 21:00:00 11,3 11,1 11,4 10,4 24 13 36 20 WSW 1029,2 0,9 0 0,0
23.02.2020 20:00:00 11,4 11,2 11,4 10,4 22 12 41 22 WSW 1029,2 4,0 0 0,0
23.02.2020 19:00:00 11,4 11,2 11,5 10,3 29 16 42 23 WSW 1028,9 1,9 0 0,2
23.02.2020 18:00:00 11,5 11,3 11,7 10,3 26 14 45 24 W 1028,5 2,5 0 0,0
23.02.2020 17:00:00 11,5 11,2 11,8 10,2 31 17 47 25 WSW 1028,3 3,2 0 0,0
23.02.2020 16:00:00 11,6 11,3 12,1 10,2 34 18 53 29 WSW 1028,5 3,2 0 0,0
23.02.2020 15:00:00 11,6 11,3 12,1 10,1 33 18 51 28 WSW 1028,7 1,8 0 0,0
23.02.2020 14:00:00 11,5 11,2 12,0 10,1 31 17 48 26 WSW 1028,9 1,4 0 0,0
23.02.2020 13:00:00 11,5 11,2 11,7 10,0 32 17 53 29 WSW 1029,4 7 0 0,0
23.02.2020 12:00:00 11,1 10,8 11,5 10,0 32 17 52 28 WSW 1029,6 1,7 0 0,0
23.02.2020 11:00:00 11,0 10,7 11,1 10,0 32 17 50 27 W 1029,2 2,0 0 0,0
23.02.2020 10:00:00 10,8 10,5 10,5 10,0 36 19 55 30 WSW 1028,8 2,9 0 0,2
23.02.2020 09:00:00 10,5 10,2 10,5 10,0 30 16 52 28 WSW 1028,6 3,3 0 0,0
23.02.2020 08:00:00 10,5 10,2 10,3 10,0 34 18 45 24 WSW 1028,2 2,6 0 0,0
23.02.2020 07:00:00 10,4 10,1 10,3 9,9 31 17 53 28 WSW 1028,5 3,7 0 0,0
23.02.2020 06:00:00 10,4 10,2 10,4 9,9 35 19 53 29 WSW 1028,6 2,1 0 0,2
23.02.2020 05:00:00 10,4 10,2 10,3 9,9 35 19 52 28 WSW 1028,6 1,8 0 0,0
23.02.2020 04:00:00 10,4 10,1 10,4 9,9 32 17 51 27 SW 1029,2 1,6 0 0,0
23.02.2020 03:00:00 10,5 10,2 10,4 9,9 32 17 49 26 WSW 1029,7 3,1 0 0,0
23.02.2020 02:00:00 10,5 10,2 10,5 9,9 28 15 49 26 SW 1030,0 4,6 0 0,0
23.02.2020 01:00:00 10,6 10,3 10,6 9,8 31 17 46 25 WSW 1030,6 4,3 0 0,2
23.02.2020 00:00:00 10,7 10,4 10,6 9,8 30 16 46 25 WSW 1031,0 4,0 0 0,0
22.02.2020 23:00:00 10,8 10,5 10,7 9,8 26 14 42 23 SW 1031,3 2,8 0 0,0
22.02.2020 22:00:00 10,8 10,5 10,7 9,8 27 14 37 20 WSW 1031,2 11 0 0,0
22.02.2020 21:00:00 10,8 10,5 10,7 9,7 26 14 39 21 WSW 1031,2 4,3 0 0,0
22.02.2020 20:00:00 10,7 10,4 10,7 9,7 26 14 42 23 WSW 1031,1 6 0 0,0
22.02.2020 19:00:00 10,7 10,4 10,7 9,7 25 13 41 22 WSW 1031,1 1,4 0 0,0

tt = Température de l'air
td = dewpoint
tt 5cm = Température de l'air 5cm
tt -20cm = Température de l'air -20cm
ff = Vitesse du vent
fx = gusts
dd = Direction du vent
ppp = reduced air pressure
vv = visibility
sd = Ensoleillement
rr = Quantités de précipitations

stations d'obs. à proximité